Date String (YYYY-MM-DD hh:mm:ss) UTC,Instrument flags,absolute air pressure of the measurement (hPa),sample flow rate (lpm),inlet stack bypass flow (lpm),air temperature of the measurement (°C),ambient temperature measured by the external sensor (°C),aerosol sample conditioner tube jacket temperature (°C),OPC LED temperature (°C),internal box temperature (°C),relative humidity of the measurement (%),span deviation,mass concentration of particles derived from Lorenz-Mie calculation of OPC scattering (μg/m³),mass concentration of particles derived from Lorenz-Mie calculation of OPC scattering (μg/m³),mass concentration of particles derived from Lorenz-Mie calculation of OPC scattering (μg/m³)
DateTimeUTC,F1_M11,P_M11,Q1_M11,Q2_M11,T1_M11,T2_M11,T3_M11,T4_M11,T5_M11,U1_M11,ZSPAN_M11,X2_M11,X0_M11,X1_M11
2023-08-27 12:00:00,SystemResetWarning,0835.4,5.01,000.00,029.2,027.6,000.0,037.6,030.5,33.7,-000.3,0006.08,0009.62,0005.71
2023-08-27 12:01:00,SystemResetWarning,0835.4,5.00,000.00,029.2,027.7,000.0,037.6,030.5,33.7,0000.1,0006.12,0009.56,0005.75
2023-08-27 12:02:00,SystemResetWarning,0835.4,4.99,000.00,029.2,027.7,000.0,037.6,030.5,33.7,0000.0,0006.16,0009.59,0005.80
2023-08-27 12:03:00,SystemResetWarning,0835.5,4.99,000.00,029.2,027.7,000.0,037.6,030.5,33.7,0000.2,0006.19,0009.70,0005.82
2023-08-27 12:04:00,SystemResetWarning,0835.5,5.00,000.00,029.2,026.7,000.0,037.6,030.4,33.7,0000.1,0006.18,0009.71,0005.82
2023-08-27 12:05:00,SystemResetWarning,0835.3,5.02,000.00,029.1,024.9,000.0,037.4,030.1,33.8,-000.6,0006.18,0009.10,0005.82
2023-08-27 12:06:00,SystemResetWarning,0835.3,5.01,000.00,029.0,024.3,000.0,037.3,029.8,33.9,-000.8,0006.18,0008.98,0005.81
2023-08-27 12:07:00,SystemResetWarning,0835.3,5.00,000.00,028.9,024.5,000.0,037.3,029.6,34.3,-000.8,0006.17,0008.96,0005.80
2023-08-27 12:08:00,SystemResetWarning,0835.3,5.00,000.00,028.8,024.9,000.0,037.4,029.7,34.4,-000.7,0006.14,0008.92,0005.77
2023-08-27 12:09:00,SystemResetWarning,0835.3,4.99,000.00,028.7,025.3,000.0,037.4,029.8,34.4,-001.0,0006.08,0008.82,0005.72
2023-08-27 12:10:00,SystemResetWarning,0835.4,5.00,000.00,028.7,025.7,000.0,037.4,029.9,34.4,-000.8,0006.05,0008.85,0005.68
2023-08-27 12:11:00,SystemResetWarning,0835.3,5.00,000.00,028.7,026.0,000.0,037.4,029.9,34.4,-000.7,0006.03,0009.07,0005.64
2023-08-27 12:12:00,SystemResetWarning,0835.3,5.00,000.00,028.7,026.3,000.0,037.3,030.0,34.4,-000.6,0005.96,0008.95,0005.60
2023-08-27 12:13:00,SystemResetWarning,0835.3,5.00,000.00,028.7,026.5,000.0,037.3,030.0,34.4,-000.4,0005.92,0008.87,0005.57
2023-08-27 12:14:00,SystemResetWarning,0835.3,5.00,000.00,028.7,026.7,000.0,037.3,030.0,34.3,-000.1,0005.93,0008.91,0005.56
2023-08-27 12:15:00,SystemResetWarning,0835.4,5.00,000.00,028.7,026.8,000.0,037.3,030.1,34.4,0000.0,0005.96,0008.93,0005.59
2023-08-27 12:16:00,SystemResetWarning,0835.4,5.00,000.00,028.7,026.9,000.0,037.3,030.1,34.4,0000.5,0006.02,0008.97,0005.63
2023-08-27 12:17:00,SystemResetWarning,0835.4,5.00,000.00,028.7,027.0,000.0,037.3,030.1,34.4,0000.6,0006.05,0008.97,0005.68
2023-08-27 12:18:00,SystemResetWarning,0835.4,5.01,000.00,028.7,027.1,000.0,037.3,030.2,34.5,0000.2,0006.09,0009.05,0005.75
2023-08-27 12:19:00,SystemResetWarning,0835.4,5.00,000.00,028.7,027.2,000.0,037.3,030.2,34.4,0000.1,0006.16,0009.26,0005.81
2023-08-27 12:20:00,SystemResetWarning,0835.5,5.00,000.00,028.8,027.3,000.0,037.3,030.2,34.4,0000.1,0006.22,0009.34,0005.88
2023-08-27 12:21:00,SystemResetWarning,0835.5,5.00,000.00,028.8,027.3,000.0,037.3,030.2,34.4,0000.0,0006.29,0009.39,0005.96
2023-08-27 12:22:00,SystemResetWarning,0835.5,5.00,000.00,028.8,027.3,000.0,037.4,030.2,34.4,0000.2,0006.35,0009.24,0006.03
2023-08-27 12:23:00,SystemResetWarning,0835.5,5.00,000.00,028.8,027.4,000.0,037.4,030.3,34.4,0000.2,0006.42,0009.48,0006.09
2023-08-27 12:24:00,SystemResetWarning,0835.5,5.00,000.00,028.8,027.4,000.0,037.4,030.3,34.4,-000.0,0006.48,0009.79,0006.14
2023-08-27 12:25:00,SystemResetWarning,0835.5,5.00,000.00,028.8,027.5,000.0,037.4,030.3,34.4,-000.2,0006.53,0009.84,0006.18
2023-08-27 12:26:00,SystemResetWarning,0835.5,5.00,000.00,028.9,027.5,000.0,037.4,030.4,34.5,-000.3,0006.57,0009.87,0006.21
2023-08-27 12:27:00,SystemResetWarning,0835.5,5.00,000.00,028.9,027.5,000.0,037.4,030.4,34.5,-000.6,0006.60,0009.96,0006.23
2023-08-27 12:28:00,SystemResetWarning,0835.6,4.99,000.00,028.9,027.6,000.0,037.4,030.4,34.5,-001.1,0006.66,0010.13,0006.27
2023-08-27 12:29:00,SystemResetWarning,0835.5,4.99,000.00,028.9,027.6,000.0,037.5,030.4,34.6,-001.0,0006.71,0010.56,0006.29
2023-08-27 12:30:00,SystemResetWarning,0835.5,4.99,000.00,028.9,027.6,000.0,037.5,030.4,34.8,-000.9,0006.74,0010.54,0006.31
2023-08-27 12:31:00,SystemResetWarning,0835.6,5.00,000.00,028.9,027.7,000.0,037.5,030.5,34.8,-001.0,0006.73,0010.83,0006.31
2023-08-27 12:32:00,SystemResetWarning,0835.5,5.00,000.00,029.0,027.6,000.0,037.5,030.5,34.9,-000.8,0006.74,0010.89,0006.32
2023-08-27 12:33:00,SystemResetWarning,0835.5,4.99,000.00,028.9,026.3,000.0,037.4,030.3,34.9,-000.7,0006.76,0010.92,0006.33
2023-08-27 12:34:00,SystemResetWarning,0835.5,5.01,000.00,028.9,024.7,000.0,037.3,030.0,35.1,-000.2,0006.78,0010.80,0006.36
2023-08-27 12:35:00,SystemResetWarning,0835.5,5.02,000.00,028.9,024.3,000.0,037.2,029.8,35.0,0000.3,0006.77,0010.64,0006.39
2023-08-27 12:36:00,SystemResetWarning,0835.5,4.98,000.00,029.1,024.6,000.0,037.2,029.8,34.7,0000.5,0006.82,0011.31,0006.43
2023-08-27 12:37:00,SystemResetWarning,0835.5,4.99,000.00,029.2,025.0,000.0,037.2,029.9,34.5,0000.1,0006.86,0011.31,0006.47
2023-08-27 12:38:00,SystemResetWarning,0835.5,5.01,000.00,029.3,025.4,000.0,037.3,030.0,34.4,0000.2,0006.91,0011.36,0006.52
2023-08-27 12:39:00,SystemResetWarning,0835.5,5.00,000.00,029.3,025.8,000.0,037.3,030.0,34.3,0000.6,0006.94,0011.35,0006.54
2023-08-27 12:40:00,SystemResetWarning,0835.6,4.99,000.00,029.3,026.1,000.0,037.4,030.1,34.1,0000.8,0006.94,0011.00,0006.53
2023-08-27 12:41:00,SystemResetWarning,0835.6,5.01,000.00,029.3,026.4,000.0,037.5,030.1,34.1,0000.6,0006.95,0011.33,0006.55
2023-08-27 12:42:00,SystemResetWarning,0835.5,5.01,000.00,029.3,026.6,000.0,037.5,030.2,34.0,0000.6,0006.98,0011.21,0006.56
2023-08-27 12:43:00,SystemResetWarning,0835.5,4.99,000.00,029.4,026.8,000.0,037.5,030.2,34.0,0000.4,0006.99,0011.39,0006.57
2023-08-27 12:44:00,SystemResetWarning,0835.5,5.00,000.00,029.4,026.9,000.0,037.6,030.2,34.0,0000.1,0006.95,0011.49,0006.54
2023-08-27 12:45:00,SystemResetWarning,0835.6,5.00,000.00,029.4,027.0,000.0,037.6,030.3,34.0,-000.3,0006.93,0011.91,0006.51
2023-08-27 12:46:00,SystemResetWarning,0835.6,5.00,000.00,029.4,027.2,000.0,037.7,030.3,34.0,-000.7,0006.92,0011.87,0006.49
2023-08-27 12:47:00,SystemResetWarning,0835.6,5.00,000.00,029.4,027.2,000.0,037.7,030.3,34.2,-001.2,0006.86,0011.11,0006.44
2023-08-27 12:48:00,SystemResetWarning,0835.6,5.00,000.00,029.4,027.3,000.0,037.7,030.4,34.2,-001.5,0006.77,0010.98,0006.38
2023-08-27 12:49:00,SystemResetWarning,0835.6,5.00,000.00,029.4,027.4,000.0,037.7,030.4,34.3,-001.7,0006.71,0010.83,0006.33
2023-08-27 12:50:00,SystemResetWarning,0835.6,5.00,000.00,029.4,027.4,000.0,037.8,030.4,34.3,-001.8,0006.64,0010.73,0006.29
2023-08-27 12:51:00,SystemResetWarning,0835.6,5.00,000.00,029.4,027.5,000.0,037.8,030.4,34.3,-002.0,0006.62,0010.68,0006.29
2023-08-27 12:52:00,SystemResetWarning,0835.6,5.00,000.00,029.4,027.5,000.0,037.8,030.5,34.4,-002.0,0006.62,0010.20,0006.28
2023-08-27 12:53:00,SystemResetWarning,0835.6,5.01,000.00,029.4,027.6,000.0,037.8,030.5,34.4,-002.1,0006.58,0009.91,0006.26
2023-08-27 12:54:00,SystemResetWarning,0835.6,5.01,000.00,029.4,027.6,000.0,037.8,030.5,34.3,-002.1,0006.58,0009.68,0006.26
2023-08-27 12:55:00,SystemResetWarning,0835.6,5.00,000.00,029.5,027.6,000.0,037.8,030.5,34.2,-001.8,0006.59,0009.48,0006.27
2023-08-27 12:56:00,SystemResetWarning,0835.6,5.00,000.00,029.5,027.7,000.0,037.9,030.6,34.4,-001.5,0006.63,0009.29,0006.29
2023-08-27 12:57:00,SystemResetWarning,0835.6,5.00,000.00,029.5,027.7,000.0,037.9,030.6,34.5,-001.5,0006.66,0009.23,0006.31
2023-08-27 12:58:00,SystemResetWarning,0835.6,5.00,000.00,029.5,027.7,000.0,037.9,030.6,34.3,-001.2,0006.70,0009.40,0006.35
2023-08-27 12:59:00,SystemResetWarning,0835.6,5.00,000.00,029.5,027.7,000.0,037.9,030.6,34.2,-000.9,0006.76,0009.85,0006.40
